Time,TemperatureF,DewpointF,PressureIn,WindDirection,WindDirectionDegrees,WindSpeedMPH,WindSpeedGustMPH,Humidity,HourlyPrecipIn,Conditions,Clouds,dailyrainin,SoftwareType,DateUTC
2013-06-02 00:04:00,56.0,48.5,29.68,North,0,0.0,0.0,76,0.00,,,0.00,WUHU216HW,2013-06-02 05:04:00,
2013-06-02 00:09:00,56.0,48.5,29.68,North,0,0.0,0.0,76,0.00,,,0.00,WUHU216HW,2013-06-02 05:09:00,
2013-06-02 00:14:00,56.0,48.5,29.68,North,0,0.0,0.0,76,0.00,,,0.00,WUHU216HW,2013-06-02 05:14:00,
2013-06-02 00:19:00,55.8,48.3,29.68,North,0,0.0,0.0,76,0.00,,,0.00,WUHU216HW,2013-06-02 05:19:00,
2013-06-02 00:24:00,55.6,48.5,29.68,North,0,0.0,0.0,77,0.00,,,0.00,WUHU216HW,2013-06-02 05:24:00,
2013-06-02 00:29:00,55.4,48.3,29.68,North,0,0.0,0.0,77,0.00,,,0.00,WUHU216HW,2013-06-02 05:29:00,
2013-06-02 00:34:00,55.4,48.6,29.69,North,0,0.0,0.0,78,0.00,,,0.00,WUHU216HW,2013-06-02 05:34:00,
2013-06-02 00:39:00,54.9,48.9,29.69,North,0,0.0,0.0,80,0.00,,,0.00,WUHU216HW,2013-06-02 05:39:00,
2013-06-02 00:44:00,54.7,48.7,29.69,North,0,0.0,0.0,80,0.00,,,0.00,WUHU216HW,2013-06-02 05:44:00,
2013-06-02 00:49:00,54.7,49.0,29.69,North,0,0.0,0.0,81,0.00,,,0.00,WUHU216HW,2013-06-02 05:49:00,
2013-06-02 00:54:00,55.3,50.1,29.69,North,0,0.0,0.0,83,0.00,,,0.00,WUHU216HW,2013-06-02 05:54:00,
2013-06-02 00:59:00,55.6,50.8,29.69,North,0,0.0,0.0,84,0.00,,,0.00,WUHU216HW,2013-06-02 05:59:00,
2013-06-02 01:04:00,55.8,50.7,29.69,North,0,0.0,0.0,83,0.00,,,0.00,WUHU216HW,2013-06-02 06:04:00,
2013-06-02 01:09:00,55.6,49.9,29.69,North,0,0.0,0.0,81,0.00,,,0.00,WUHU216HW,2013-06-02 06:09:00,
2013-06-02 01:14:00,55.4,50.0,29.70,North,0,0.0,0.0,82,0.00,,,0.00,WUHU216HW,2013-06-02 06:14:00,
2013-06-02 01:19:00,55.4,49.3,29.70,North,0,0.0,0.0,80,0.00,,,0.00,WUHU216HW,2013-06-02 06:19:00,
2013-06-02 01:24:00,55.4,49.3,29.70,North,0,0.0,0.0,80,0.00,,,0.00,WUHU216HW,2013-06-02 06:24:00,
2013-06-02 01:29:00,55.4,48.6,29.70,North,0,0.0,0.0,78,0.00,,,0.00,WUHU216HW,2013-06-02 06:29:00,
2013-06-02 01:34:00,55.6,49.5,29.70,North,0,0.0,0.0,80,0.00,,,0.00,WUHU216HW,2013-06-02 06:34:00,
2013-06-02 01:39:00,55.8,49.7,29.70,North,0,0.0,0.0,80,0.00,,,0.00,WUHU216HW,2013-06-02 06:39:00,
2013-06-02 01:44:00,56.5,50.0,29.70,North,0,0.0,0.0,79,0.00,,,0.00,WUHU216HW,2013-06-02 06:44:00,
2013-06-02 01:49:00,56.5,49.7,29.70,North,0,0.0,0.0,78,0.00,,,0.00,WUHU216HW,2013-06-02 06:49:00,
2013-06-02 01:54:00,56.2,49.0,29.70,North,0,0.0,0.0,77,0.00,,,0.00,WUHU216HW,2013-06-02 06:54:00,
2013-06-02 01:59:00,55.8,49.0,29.70,North,0,0.0,0.0,78,0.00,,,0.00,WUHU216HW,2013-06-02 06:59:00,
2013-06-02 02:04:00,55.3,48.8,29.70,North,0,0.0,0.0,79,0.00,,,0.00,WUHU216HW,2013-06-02 07:04:00,
2013-06-02 02:09:00,54.9,48.2,29.70,North,0,0.0,0.0,78,0.00,,,0.00,WUHU216HW,2013-06-02 07:09:00,
2013-06-02 02:14:00,54.7,48.0,29.71,North,0,0.0,0.0,78,0.00,,,0.00,WUHU216HW,2013-06-02 07:14:00,
2013-06-02 02:19:00,54.5,48.2,29.71,North,0,0.0,0.0,79,0.00,,,0.00,WUHU216HW,2013-06-02 07:19:00,
2013-06-02 02:24:00,54.4,47.6,29.71,North,0,0.0,0.0,78,0.00,,,0.00,WUHU216HW,2013-06-02 07:24:00,
2013-06-02 02:29:00,54.4,47.6,29.71,North,0,0.0,0.0,78,0.00,,,0.00,WUHU216HW,2013-06-02 07:29:00,
2013-06-02 02:34:00,54.2,47.5,29.71,North,0,0.0,0.0,78,0.00,,,0.00,WUHU216HW,2013-06-02 07:34:00,
2013-06-02 02:39:00,54.2,47.8,29.71,North,0,0.0,0.0,79,0.00,,,0.00,WUHU216HW,2013-06-02 07:39:00,
2013-06-02 02:44:00,54.2,47.8,29.71,North,0,0.0,0.0,79,0.00,,,0.00,WUHU216HW,2013-06-02 07:44:00,
2013-06-02 02:49:00,53.8,47.9,29.71,North,0,0.0,0.0,80,0.00,,,0.00,WUHU216HW,2013-06-02 07:49:00,
2013-06-02 02:54:00,53.6,47.7,29.71,North,0,0.0,0.0,80,0.00,,,0.00,WUHU216HW,2013-06-02 07:54:00,
2013-06-02 02:59:00,53.5,47.5,29.71,North,0,0.0,0.0,80,0.00,,,0.00,WUHU216HW,2013-06-02 07:59:00,
2013-06-02 03:04:00,53.3,47.3,29.71,North,0,0.0,0.0,80,0.00,,,0.00,WUHU216HW,2013-06-02 08:04:00,
2013-06-02 03:09:00,53.1,47.2,29.71,North,0,0.0,0.0,80,0.00,,,0.00,WUHU216HW,2013-06-02 08:09:00,
2013-06-02 03:14:00,52.9,47.0,29.71,North,0,0.0,0.0,80,0.00,,,0.00,WUHU216HW,2013-06-02 08:14:00,
2013-06-02 03:19:00,52.9,47.0,29.71,North,0,0.0,0.0,80,0.00,,,0.00,WUHU216HW,2013-06-02 08:19:00,
2013-06-02 03:24:00,52.9,47.0,29.71,North,0,0.0,0.0,80,0.00,,,0.00,WUHU216HW,2013-06-02 08:24:00,
2013-06-02 03:29:00,52.9,47.0,29.71,North,0,0.0,0.0,80,0.00,,,0.00,WUHU216HW,2013-06-02 08:29:00,
2013-06-02 03:34:00,52.7,46.8,29.71,North,0,0.0,0.0,80,0.00,,,0.00,WUHU216HW,2013-06-02 08:34:00,
2013-06-02 03:39:00,52.7,46.8,29.71,North,0,0.0,0.0,80,0.00,,,0.00,WUHU216HW,2013-06-02 08:39:00,
2013-06-02 03:44:00,52.6,46.6,29.71,North,0,0.0,0.0,80,0.00,,,0.00,WUHU216HW,2013-06-02 08:44:00,
2013-06-02 03:49:00,52.6,46.6,29.71,North,0,0.0,0.0,80,0.00,,,0.00,WUHU216HW,2013-06-02 08:49:00,
2013-06-02 03:54:00,52.7,46.4,29.71,North,0,0.0,0.0,79,0.00,,,0.00,WUHU216HW,2013-06-02 08:54:00,
2013-06-02 03:59:00,52.7,46.4,29.71,North,0,0.0,0.0,79,0.00,,,0.00,WUHU216HW,2013-06-02 08:59:00,
2013-06-02 04:04:00,52.7,46.4,29.71,North,0,0.0,0.0,79,0.00,,,0.00,WUHU216HW,2013-06-02 09:04:00,
2013-06-02 04:09:00,52.7,46.1,29.71,North,0,0.0,0.0,78,0.00,,,0.00,WUHU216HW,2013-06-02 09:09:00,
2013-06-02 04:14:00,52.7,46.1,29.71,North,0,0.0,0.0,78,0.00,,,0.00,WUHU216HW,2013-06-02 09:14:00,
2013-06-02 04:19:00,52.7,46.1,29.71,North,0,0.0,0.0,78,0.00,,,0.00,WUHU216HW,2013-06-02 09:19:00,
2013-06-02 04:24:00,52.7,46.1,29.71,North,0,0.0,0.0,78,0.00,,,0.00,WUHU216HW,2013-06-02 09:24:00,
2013-06-02 04:29:00,52.6,45.9,29.71,North,0,0.0,0.0,78,0.00,,,0.00,WUHU216HW,2013-06-02 09:29:00,
2013-06-02 04:34:00,52.6,45.9,29.71,North,0,0.0,0.0,78,0.00,,,0.00,WUHU216HW,2013-06-02 09:34:00,
2013-06-02 04:39:00,52.6,45.9,29.71,North,0,0.0,0.0,78,0.00,,,0.00,WUHU216HW,2013-06-02 09:39:00,
2013-06-02 04:44:00,52.7,46.1,29.71,North,0,0.0,0.0,78,0.00,,,0.00,WUHU216HW,2013-06-02 09:44:00,
2013-06-02 04:49:00,52.7,46.1,29.71,North,0,0.0,0.0,78,0.00,,,0.00,WUHU216HW,2013-06-02 09:49:00,
2013-06-02 04:54:00,52.7,45.7,29.71,North,0,0.0,0.0,77,0.00,,,0.00,WUHU216HW,2013-06-02 09:54:00,
2013-06-02 04:59:00,52.7,45.7,29.71,North,0,0.0,0.0,77,0.00,,,0.00,WUHU216HW,2013-06-02 09:59:00,
2013-06-02 05:04:00,52.7,45.7,29.71,North,0,0.0,0.0,77,0.00,,,0.00,WUHU216HW,2013-06-02 10:04:00,
2013-06-02 05:09:00,52.7,45.7,29.72,North,0,0.0,0.0,77,0.00,,,0.00,WUHU216HW,2013-06-02 10:09:00,
2013-06-02 05:14:00,52.7,45.7,29.72,North,0,0.0,0.0,77,0.00,,,0.00,WUHU216HW,2013-06-02 10:14:00,
2013-06-02 05:19:00,52.7,45.7,29.73,North,0,0.0,0.0,77,0.00,,,0.00,WUHU216HW,2013-06-02 10:19:00,
2013-06-02 05:24:00,52.7,45.7,29.73,North,0,0.0,0.0,77,0.00,,,0.00,WUHU216HW,2013-06-02 10:24:00,
2013-06-02 05:29:00,52.7,45.7,29.73,North,0,0.0,0.0,77,0.00,,,0.00,WUHU216HW,2013-06-02 10:29:00,
2013-06-02 05:34:00,52.7,45.7,29.73,North,0,0.0,0.0,77,0.00,,,0.00,WUHU216HW,2013-06-02 10:34:00,
2013-06-02 05:39:00,52.9,45.5,29.73,North,0,0.0,0.0,76,0.00,,,0.00,WUHU216HW,2013-06-02 10:39:00,
2013-06-02 05:44:00,52.9,45.5,29.73,North,0,0.0,0.0,76,0.00,,,0.00,WUHU216HW,2013-06-02 10:44:00,
2013-06-02 05:50:00,52.9,45.5,29.73,North,0,0.0,0.0,76,0.00,,,0.00,WUHU216HW,2013-06-02 10:50:00,
2013-06-02 05:55:00,52.9,45.5,29.73,North,0,0.0,0.0,76,0.00,,,0.00,WUHU216HW,2013-06-02 10:55:00,
2013-06-02 06:00:00,52.9,45.5,29.73,North,0,0.0,0.0,76,0.00,,,0.00,WUHU216HW,2013-06-02 11:00:00,
2013-06-02 06:05:00,52.9,45.5,29.73,North,0,0.0,0.0,76,0.00,,,0.00,WUHU216HW,2013-06-02 11:05:00,
2013-06-02 06:10:00,52.9,45.5,29.73,North,0,0.0,0.0,76,0.00,,,0.00,WUHU216HW,2013-06-02 11:10:00,
2013-06-02 06:15:00,53.1,45.7,29.73,North,0,0.0,0.0,76,0.00,,,0.00,WUHU216HW,2013-06-02 11:15:00,
2013-06-02 06:20:00,53.1,45.4,29.74,North,0,0.0,0.0,75,0.00,,,0.00,WUHU216HW,2013-06-02 11:20:00,
2013-06-02 06:25:00,53.1,45.4,29.74,North,0,0.0,0.0,75,0.00,,,0.00,WUHU216HW,2013-06-02 11:25:00,
2013-06-02 06:30:00,53.1,45.4,29.73,North,0,0.0,0.0,75,0.00,,,0.00,WUHU216HW,2013-06-02 11:30:00,
2013-06-02 06:35:00,53.1,45.4,29.73,North,0,0.0,0.0,75,0.00,,,0.00,WUHU216HW,2013-06-02 11:35:00,
2013-06-02 06:40:00,53.1,45.4,29.74,North,0,0.0,0.0,75,0.00,,,0.00,WUHU216HW,2013-06-02 11:40:00,
2013-06-02 06:45:00,53.1,45.4,29.74,North,0,0.0,0.0,75,0.00,,,0.00,WUHU216HW,2013-06-02 11:45:00,
2013-06-02 06:50:00,53.1,45.4,29.74,North,0,0.0,0.0,75,0.00,,,0.00,WUHU216HW,2013-06-02 11:50:00,
2013-06-02 06:55:00,53.3,45.5,29.74,North,0,0.0,0.0,75,0.00,,,0.00,WUHU216HW,2013-06-02 11:55:00,
2013-06-02 07:00:00,53.3,45.5,29.74,North,0,0.0,0.0,75,0.00,,,0.00,WUHU216HW,2013-06-02 12:00:00,
2013-06-02 07:05:00,53.3,45.5,29.75,North,0,0.0,0.0,75,0.00,,,0.00,WUHU216HW,2013-06-02 12:05:00,
2013-06-02 07:10:00,53.3,45.5,29.75,North,0,0.0,0.0,75,0.00,,,0.00,WUHU216HW,2013-06-02 12:10:00,
2013-06-02 07:15:00,53.3,45.5,29.75,North,0,0.0,0.0,75,0.00,,,0.00,WUHU216HW,2013-06-02 12:15:00,
2013-06-02 07:20:00,53.3,45.5,29.75,North,0,0.0,0.0,75,0.00,,,0.00,WUHU216HW,2013-06-02 12:20:00,
2013-06-02 07:25:00,53.3,45.5,29.75,North,0,0.0,0.0,75,0.00,,,0.00,WUHU216HW,2013-06-02 12:25:00,
2013-06-02 07:30:00,53.5,45.7,29.75,North,0,0.0,0.0,75,0.00,,,0.00,WUHU216HW,2013-06-02 12:30:00,
2013-06-02 07:40:00,53.5,45.7,29.75,North,0,0.0,0.0,75,0.00,,,0.00,WUHU216HW,2013-06-02 12:40:00,
2013-06-02 07:45:00,53.5,45.7,29.75,North,0,0.0,0.0,75,0.00,,,0.00,WUHU216HW,2013-06-02 12:45:00,
2013-06-02 07:50:00,53.5,45.0,29.75,North,0,0.0,0.0,73,0.00,,,0.00,WUHU216HW,2013-06-02 12:50:00,
2013-06-02 07:55:00,53.5,45.0,29.76,North,0,0.0,0.0,73,0.00,,,0.00,WUHU216HW,2013-06-02 12:55:00,
2013-06-02 08:00:00,53.5,45.4,29.76,North,0,0.0,0.0,74,0.00,,,0.00,WUHU216HW,2013-06-02 13:00:00,
2013-06-02 08:05:00,53.6,45.5,29.76,North,0,0.0,0.0,74,0.00,,,0.00,WUHU216HW,2013-06-02 13:05:00,
2013-06-02 08:10:00,53.6,44.8,29.76,North,0,0.0,0.0,72,0.00,,,0.00,WUHU216HW,2013-06-02 13:10:00,
2013-06-02 08:15:00,53.6,44.8,29.76,North,0,0.0,0.0,72,0.00,,,0.00,WUHU216HW,2013-06-02 13:15:00,
2013-06-02 08:20:00,53.8,44.7,29.76,North,0,0.0,0.0,71,0.00,,,0.00,WUHU216HW,2013-06-02 13:20:00,
2013-06-02 08:25:00,53.8,45.0,29.77,North,0,0.0,0.0,72,0.00,,,0.00,WUHU216HW,2013-06-02 13:25:00,
2013-06-02 08:30:00,54.0,44.8,29.77,North,0,0.0,0.0,71,0.00,,,0.00,WUHU216HW,2013-06-02 13:30:00,
2013-06-02 08:35:00,54.0,44.5,29.77,North,0,0.0,0.0,70,0.00,,,0.00,WUHU216HW,2013-06-02 13:35:00,
2013-06-02 08:40:00,54.2,44.6,29.77,North,0,0.0,0.0,70,0.00,,,0.00,WUHU216HW,2013-06-02 13:40:00,
2013-06-02 08:45:00,54.4,44.8,29.77,North,0,0.0,0.0,70,0.00,,,0.00,WUHU216HW,2013-06-02 13:45:00,
2013-06-02 08:50:00,54.2,44.3,29.77,North,0,0.0,0.0,69,0.00,,,0.00,WUHU216HW,2013-06-02 13:50:00,
2013-06-02 08:55:00,54.4,44.8,29.77,North,0,0.0,0.0,70,0.00,,,0.00,WUHU216HW,2013-06-02 13:55:00,
2013-06-02 09:00:00,54.4,45.2,29.77,North,0,0.0,0.0,71,0.00,,,0.00,WUHU216HW,2013-06-02 14:00:00,
2013-06-02 09:05:00,54.4,45.2,29.77,North,0,0.0,0.0,71,0.00,,,0.00,WUHU216HW,2013-06-02 14:05:00,
2013-06-02 09:10:00,54.5,45.4,29.77,North,0,0.0,0.0,71,0.00,,,0.00,WUHU216HW,2013-06-02 14:10:00,
2013-06-02 09:15:00,54.7,45.6,29.77,North,0,0.0,0.0,71,0.00,,,0.00,WUHU216HW,2013-06-02 14:15:00,
2013-06-02 09:20:00,54.9,45.7,29.77,North,0,0.0,0.0,71,0.00,,,0.00,WUHU216HW,2013-06-02 14:20:00,
2013-06-02 09:25:00,55.3,45.7,29.77,North,0,0.0,0.0,70,0.00,,,0.00,WUHU216HW,2013-06-02 14:25:00,
2013-06-02 09:30:00,55.4,45.1,29.77,North,0,0.0,0.0,68,0.00,,,0.00,WUHU216HW,2013-06-02 14:30:00,
2013-06-02 09:35:00,55.6,44.8,29.77,North,0,0.0,0.0,67,0.00,,,0.00,WUHU216HW,2013-06-02 14:35:00,
2013-06-02 09:40:00,55.6,45.6,29.77,North,0,0.0,0.0,69,0.00,,,0.00,WUHU216HW,2013-06-02 14:40:00,
2013-06-02 09:45:00,55.8,45.4,29.78,North,0,0.0,0.0,68,0.00,,,0.00,WUHU216HW,2013-06-02 14:45:00,
2013-06-02 09:50:00,55.6,44.8,29.78,North,0,0.0,0.0,67,0.00,,,0.00,WUHU216HW,2013-06-02 14:50:00,
2013-06-02 09:55:00,55.8,44.6,29.78,North,0,0.0,0.0,66,0.00,,,0.00,WUHU216HW,2013-06-02 14:55:00,
2013-06-02 10:00:00,56.0,44.7,29.78,North,0,0.0,0.0,66,0.00,,,0.00,WUHU216HW,2013-06-02 15:00:00,
2013-06-02 10:05:00,56.3,45.5,29.78,North,0,0.0,0.0,67,0.00,,,0.00,WUHU216HW,2013-06-02 15:05:00,
2013-06-02 10:10:00,56.5,45.6,29.78,North,0,0.0,0.0,67,0.00,,,0.00,WUHU216HW,2013-06-02 15:10:00,
2013-06-02 10:15:00,56.7,45.5,29.78,North,0,0.0,0.0,66,0.00,,,0.00,WUHU216HW,2013-06-02 15:15:00,
2013-06-02 10:20:00,56.7,44.7,29.78,North,0,0.0,0.0,64,0.00,,,0.00,WUHU216HW,2013-06-02 15:20:00,
2013-06-02 10:25:00,56.7,45.0,29.78,North,0,0.0,0.0,65,0.00,,,0.00,WUHU216HW,2013-06-02 15:25:00,
2013-06-02 10:30:00,56.9,45.2,29.78,North,0,0.0,0.0,65,0.00,,,0.00,WUHU216HW,2013-06-02 15:30:00,
2013-06-02 10:35:00,57.1,45.8,29.78,North,0,0.0,0.0,66,0.00,,,0.00,WUHU216HW,2013-06-02 15:35:00,
2013-06-02 10:40:00,57.2,45.9,29.78,North,0,0.0,0.0,66,0.00,,,0.00,WUHU216HW,2013-06-02 15:40:00,
2013-06-02 10:45:00,57.4,46.5,29.77,North,0,0.0,0.0,67,0.00,,,0.00,WUHU216HW,2013-06-02 15:45:00,
2013-06-02 10:50:00,57.6,46.7,29.77,North,0,0.0,0.0,67,0.00,,,0.00,WUHU216HW,2013-06-02 15:50:00,
2013-06-02 10:55:00,58.3,47.8,29.78,North,0,0.0,0.0,68,0.00,,,0.00,WUHU216HW,2013-06-02 15:55:00,
2013-06-02 11:00:00,59.2,48.2,29.78,North,0,0.0,0.0,67,0.00,,,0.00,WUHU216HW,2013-06-02 16:00:00,
2013-06-02 11:05:00,58.9,46.7,29.78,North,0,0.0,0.0,64,0.00,,,0.00,WUHU216HW,2013-06-02 16:05:00,
2013-06-02 11:10:00,59.0,47.3,29.78,North,0,0.0,0.0,65,0.00,,,0.00,WUHU216HW,2013-06-02 16:10:00,
2013-06-02 11:15:00,58.9,46.7,29.78,North,0,0.0,0.0,64,0.00,,,0.00,WUHU216HW,2013-06-02 16:15:00,
2013-06-02 11:20:00,58.9,45.5,29.78,North,0,0.0,0.0,61,0.00,,,0.00,WUHU216HW,2013-06-02 16:20:00,
2013-06-02 11:25:00,58.3,45.4,29.78,North,0,0.0,0.0,62,0.00,,,0.00,WUHU216HW,2013-06-02 16:25:00,
2013-06-02 11:30:00,58.3,45.7,29.78,North,0,0.0,0.0,63,0.00,,,0.00,WUHU216HW,2013-06-02 16:30:00,
2013-06-02 11:35:00,58.3,45.7,29.78,North,0,0.0,0.0,63,0.00,,,0.00,WUHU216HW,2013-06-02 16:35:00,
2013-06-02 11:40:00,58.3,45.4,29.77,North,0,0.0,0.0,62,0.00,,,0.00,WUHU216HW,2013-06-02 16:40:00,
2013-06-02 11:45:00,58.5,45.9,29.77,North,0,0.0,0.0,63,0.00,,,0.00,WUHU216HW,2013-06-02 16:45:00,
2013-06-02 11:50:00,58.7,45.7,29.77,North,0,0.0,0.0,62,0.00,,,0.00,WUHU216HW,2013-06-02 16:50:00,
2013-06-02 11:55:00,59.0,46.5,29.77,North,0,0.0,0.0,63,0.00,,,0.00,WUHU216HW,2013-06-02 16:55:00,
2013-06-02 12:00:00,59.2,46.6,29.77,North,0,0.0,0.0,63,0.00,,,0.00,WUHU216HW,2013-06-02 17:00:00,
2013-06-02 12:05:00,59.6,47.0,29.76,North,0,0.0,0.0,63,0.00,,,0.00,WUHU216HW,2013-06-02 17:05:00,
2013-06-02 12:10:00,59.9,46.9,29.76,North,0,0.0,0.0,62,0.00,,,0.00,WUHU216HW,2013-06-02 17:10:00,
2013-06-02 12:15:00,60.8,47.4,29.76,North,0,0.0,0.0,61,0.00,,,0.00,WUHU216HW,2013-06-02 17:15:00,
2013-06-02 12:20:00,60.8,47.4,29.76,North,0,0.0,0.0,61,0.00,,,0.00,WUHU216HW,2013-06-02 17:20:00,
2013-06-02 12:25:00,61.4,47.4,29.76,North,0,0.0,0.0,60,0.00,,,0.00,WUHU216HW,2013-06-02 17:25:00,
2013-06-02 12:30:00,61.4,48.3,29.76,North,0,0.0,0.0,62,0.00,,,0.00,WUHU216HW,2013-06-02 17:30:00,
2013-06-02 12:35:00,61.7,47.8,29.76,North,0,0.0,0.0,60,0.00,,,0.00,WUHU216HW,2013-06-02 17:35:00,
2013-06-02 12:40:00,61.7,47.8,29.76,North,0,0.0,0.0,60,0.00,,,0.00,WUHU216HW,2013-06-02 17:40:00,
2013-06-02 12:45:00,61.9,48.0,29.76,North,0,0.0,0.0,60,0.00,,,0.00,WUHU216HW,2013-06-02 17:45:00,
2013-06-02 12:50:00,62.1,48.2,29.76,North,0,0.0,0.0,60,0.00,,,0.00,WUHU216HW,2013-06-02 17:50:00,
2013-06-02 12:55:00,62.1,46.6,29.76,North,0,0.0,0.0,57,0.00,,,0.00,WUHU216HW,2013-06-02 17:55:00,
2013-06-02 13:00:00,61.9,47.0,29.76,North,0,0.0,0.0,58,0.00,,,0.00,WUHU216HW,2013-06-02 18:00:00,
2013-06-02 13:05:00,61.9,47.4,29.75,North,0,0.0,0.0,59,0.00,,,0.00,WUHU216HW,2013-06-02 18:05:00,
2013-06-02 13:10:00,62.3,47.4,29.76,North,0,0.0,0.0,58,0.00,,,0.00,WUHU216HW,2013-06-02 18:10:00,
2013-06-02 13:15:00,62.6,47.6,29.76,North,0,0.0,0.0,58,0.00,,,0.00,WUHU216HW,2013-06-02 18:15:00,
2013-06-02 13:20:00,63.0,48.0,29.76,North,0,0.0,0.0,58,0.00,,,0.00,WUHU216HW,2013-06-02 18:20:00,
2013-06-02 13:25:00,62.8,46.4,29.76,North,0,0.0,0.0,55,0.00,,,0.00,WUHU216HW,2013-06-02 18:25:00,
2013-06-02 13:30:00,62.8,47.4,29.75,North,0,0.0,0.0,57,0.00,,,0.00,WUHU216HW,2013-06-02 18:30:00,
2013-06-02 13:35:00,63.0,47.0,29.75,North,0,0.0,0.0,56,0.00,,,0.00,WUHU216HW,2013-06-02 18:35:00,
2013-06-02 13:40:00,63.4,47.8,29.75,North,0,0.0,0.0,57,0.00,,,0.00,WUHU216HW,2013-06-02 18:40:00,
2013-06-02 13:45:00,63.5,48.0,29.75,North,0,0.0,0.0,57,0.00,,,0.00,WUHU216HW,2013-06-02 18:45:00,
2013-06-02 13:50:00,63.7,47.6,29.75,North,0,0.0,0.0,56,0.00,,,0.00,WUHU216HW,2013-06-02 18:50:00,
2013-06-02 13:55:00,63.9,47.8,29.75,North,0,0.0,0.0,56,0.00,,,0.00,WUHU216HW,2013-06-02 18:55:00,
2013-06-02 14:00:00,64.1,47.4,29.75,North,0,0.0,0.0,55,0.00,,,0.00,WUHU216HW,2013-06-02 19:00:00,
2013-06-02 14:05:00,64.1,47.4,29.75,North,0,0.0,0.0,55,0.00,,,0.00,WUHU216HW,2013-06-02 19:05:00,
2013-06-02 14:10:00,64.3,47.6,29.75,North,0,0.0,0.0,55,0.00,,,0.00,WUHU216HW,2013-06-02 19:10:00,
2013-06-02 14:15:00,64.4,47.8,29.75,North,0,0.0,0.0,55,0.00,,,0.00,WUHU216HW,2013-06-02 19:15:00,
2013-06-02 14:20:00,64.4,47.4,29.75,North,0,0.0,0.0,54,0.00,,,0.00,WUHU216HW,2013-06-02 19:20:00,
2013-06-02 14:25:00,64.4,47.4,29.75,North,0,0.0,0.0,54,0.00,,,0.00,WUHU216HW,2013-06-02 19:25:00,
2013-06-02 14:30:00,64.3,47.2,29.74,North,0,0.0,0.0,54,0.00,,,0.00,WUHU216HW,2013-06-02 19:30:00,
2013-06-02 14:35:00,64.4,48.2,29.75,North,0,0.0,0.0,56,0.00,,,0.00,WUHU216HW,2013-06-02 19:35:00,
2013-06-02 14:40:00,64.8,47.2,29.75,North,0,0.0,0.0,53,0.00,,,0.00,WUHU216HW,2013-06-02 19:40:00,
2013-06-02 14:45:00,65.0,47.9,29.75,North,0,0.0,0.0,54,0.00,,,0.00,WUHU216HW,2013-06-02 19:45:00,
2013-06-02 14:50:00,65.0,48.3,29.74,North,0,0.0,0.0,55,0.00,,,0.00,WUHU216HW,2013-06-02 19:50:00,
2013-06-02 14:55:00,65.3,47.7,29.74,North,0,0.0,0.0,53,0.00,,,0.00,WUHU216HW,2013-06-02 19:55:00,
2013-06-02 15:00:00,65.3,47.3,29.74,North,0,0.0,0.0,52,0.00,,,0.00,WUHU216HW,2013-06-02 20:00:00,
2013-06-02 15:05:00,65.3,48.3,29.74,North,0,0.0,0.0,54,0.00,,,0.00,WUHU216HW,2013-06-02 20:05:00,
2013-06-02 15:10:00,65.7,48.6,29.74,North,0,0.0,0.0,54,0.00,,,0.00,WUHU216HW,2013-06-02 20:10:00,
2013-06-02 15:15:00,66.1,49.9,29.74,North,0,0.0,0.0,56,0.00,,,0.00,WUHU216HW,2013-06-02 20:15:00,
2013-06-02 15:20:00,66.1,48.4,29.73,North,0,0.0,0.0,53,0.00,,,0.00,WUHU216HW,2013-06-02 20:20:00,
2013-06-02 15:25:00,66.1,48.0,29.73,North,0,0.0,0.0,52,0.00,,,0.00,WUHU216HW,2013-06-02 20:25:00,
2013-06-02 15:30:00,65.9,47.3,29.73,North,0,0.0,0.0,51,0.00,,,0.00,WUHU216HW,2013-06-02 20:30:00,
2013-06-02 15:35:00,65.9,48.2,29.73,North,0,0.0,0.0,53,0.00,,,0.00,WUHU216HW,2013-06-02 20:35:00,
2013-06-02 15:40:00,66.2,49.2,29.73,North,0,0.0,0.0,54,0.00,,,0.00,WUHU216HW,2013-06-02 20:40:00,
2013-06-02 15:45:00,66.8,49.6,29.73,North,0,0.0,0.0,54,0.00,,,0.00,WUHU216HW,2013-06-02 20:45:00,
2013-06-02 15:50:00,67.0,47.8,29.73,North,0,0.0,0.0,50,0.00,,,0.00,WUHU216HW,2013-06-02 20:50:00,
2013-06-02 15:55:00,66.8,48.6,29.73,North,0,0.0,0.0,52,0.00,,,0.00,WUHU216HW,2013-06-02 20:55:00,
2013-06-02 16:00:00,67.0,48.8,29.72,North,0,0.0,0.0,52,0.00,,,0.00,WUHU216HW,2013-06-02 21:00:00,
2013-06-02 16:05:00,67.3,49.6,29.72,North,0,0.0,0.0,53,0.00,,,0.00,WUHU216HW,2013-06-02 21:05:00,
2013-06-02 16:10:00,67.7,50.0,29.72,North,0,0.0,0.0,53,0.00,,,0.00,WUHU216HW,2013-06-02 21:10:00,
2013-06-02 16:15:00,67.7,49.0,29.72,North,0,0.0,0.0,51,0.00,,,0.00,WUHU216HW,2013-06-02 21:15:00,
2013-06-02 16:20:00,67.5,47.7,29.72,North,0,0.0,0.0,49,0.00,,,0.00,WUHU216HW,2013-06-02 21:20:00,
2013-06-02 16:25:00,67.3,47.0,29.71,North,0,0.0,0.0,48,0.00,,,0.00,WUHU216HW,2013-06-02 21:25:00,
2013-06-02 16:30:00,67.3,48.2,29.71,North,0,0.0,0.0,50,0.00,,,0.00,WUHU216HW,2013-06-02 21:30:00,
2013-06-02 16:35:00,67.0,46.6,29.71,North,0,0.0,0.0,48,0.00,,,0.00,WUHU216HW,2013-06-02 21:35:00,
2013-06-02 16:40:00,67.0,47.8,29.71,North,0,0.0,0.0,50,0.00,,,0.00,WUHU216HW,2013-06-02 21:40:00,
2013-06-02 16:45:00,67.3,47.5,29.71,North,0,0.0,0.0,49,0.00,,,0.00,WUHU216HW,2013-06-02 21:45:00,
2013-06-02 16:50:00,67.3,48.2,29.71,North,0,0.0,0.0,50,0.00,,,0.00,WUHU216HW,2013-06-02 21:50:00,
2013-06-02 16:55:00,67.7,49.0,29.71,North,0,0.0,0.0,51,0.00,,,0.00,WUHU216HW,2013-06-02 21:55:00,
2013-06-02 17:00:00,67.7,49.0,29.71,North,0,0.0,0.0,51,0.00,,,0.00,WUHU216HW,2013-06-02 22:00:00,
2013-06-02 17:05:00,67.9,48.1,29.71,North,0,0.0,0.0,49,0.00,,,0.00,WUHU216HW,2013-06-02 22:05:00,
2013-06-02 17:10:00,67.7,48.4,29.70,North,0,0.0,0.0,50,0.00,,,0.00,WUHU216HW,2013-06-02 22:10:00,
2013-06-02 17:15:00,67.7,46.7,29.70,North,0,0.0,0.0,47,0.00,,,0.00,WUHU216HW,2013-06-02 22:15:00,
2013-06-02 17:20:00,67.7,47.9,29.70,North,0,0.0,0.0,49,0.00,,,0.00,WUHU216HW,2013-06-02 22:20:00,
2013-06-02 17:25:00,67.5,48.3,29.70,North,0,0.0,0.0,50,0.00,,,0.00,WUHU216HW,2013-06-02 22:25:00,
2013-06-02 17:30:00,67.9,48.6,29.70,North,0,0.0,0.0,50,0.00,,,0.00,WUHU216HW,2013-06-02 22:30:00,
2013-06-02 17:35:00,68.0,48.2,29.69,North,0,0.0,0.0,49,0.00,,,0.00,WUHU216HW,2013-06-02 22:35:00,
2013-06-02 17:40:00,68.0,48.8,29.69,North,0,0.0,0.0,50,0.00,,,0.00,WUHU216HW,2013-06-02 22:40:00,
2013-06-02 17:45:00,68.4,49.6,29.69,North,0,0.0,0.0,51,0.00,,,0.00,WUHU216HW,2013-06-02 22:45:00,
2013-06-02 17:50:00,68.4,48.5,29.69,North,0,0.0,0.0,49,0.00,,,0.00,WUHU216HW,2013-06-02 22:50:00,
2013-06-02 17:55:00,68.2,48.3,29.69,North,0,0.0,0.0,49,0.00,,,0.00,WUHU216HW,2013-06-02 22:55:00,
2013-06-02 18:00:00,68.4,49.2,29.69,North,0,0.0,0.0,50,0.00,,,0.00,WUHU216HW,2013-06-02 23:00:00,
2013-06-02 18:05:00,68.8,50.0,29.69,North,0,0.0,0.0,51,0.00,,,0.00,WUHU216HW,2013-06-02 23:05:00,
2013-06-02 18:10:00,69.7,50.8,29.68,North,0,0.0,0.0,51,0.00,,,0.00,WUHU216HW,2013-06-02 23:10:00,
2013-06-02 18:15:00,70.0,50.6,29.68,North,0,0.0,0.0,50,0.00,,,0.00,WUHU216HW,2013-06-02 23:15:00,
2013-06-02 18:20:00,70.4,50.9,29.68,North,0,0.0,0.0,50,0.00,,,0.00,WUHU216HW,2013-06-02 23:20:00,
2013-06-02 18:25:00,70.2,52.2,29.68,North,0,0.0,0.0,53,0.00,,,0.00,WUHU216HW,2013-06-02 23:25:00,
2013-06-02 18:30:00,70.4,52.9,29.68,North,0,0.0,0.0,54,0.00,,,0.00,WUHU216HW,2013-06-02 23:30:00,
2013-06-02 18:35:00,70.6,52.6,29.68,North,0,0.0,0.0,53,0.00,,,0.00,WUHU216HW,2013-06-02 23:35:00,
2013-06-02 18:40:00,70.7,51.8,29.68,North,0,0.0,0.0,51,0.00,,,0.00,WUHU216HW,2013-06-02 23:40:00,
2013-06-02 18:45:00,70.7,51.2,29.68,North,0,0.0,0.0,50,0.00,,,0.00,WUHU216HW,2013-06-02 23:45:00,
2013-06-02 18:50:00,70.2,50.1,29.68,North,0,0.0,0.0,49,0.00,,,0.00,WUHU216HW,2013-06-02 23:50:00,
2013-06-02 18:55:00,69.5,48.3,29.67,North,0,0.0,0.0,47,0.00,,,0.00,WUHU216HW,2013-06-02 23:55:00,
2013-06-02 19:00:00,68.8,48.2,29.67,North,0,0.0,0.0,48,0.00,,,0.00,WUHU216HW,2013-06-03 00:00:00,
2013-06-02 19:05:00,68.2,47.2,29.67,North,0,0.0,0.0,47,0.00,,,0.00,WUHU216HW,2013-06-03 00:05:00,
2013-06-02 19:10:00,67.5,47.1,29.67,North,0,0.0,0.0,48,0.00,,,0.00,WUHU216HW,2013-06-03 00:10:00,
2013-06-02 19:15:00,67.1,46.8,29.67,North,0,0.0,0.0,48,0.00,,,0.00,WUHU216HW,2013-06-03 00:15:00,
2013-06-02 19:20:00,66.8,47.1,29.67,North,0,0.0,0.0,49,0.00,,,0.00,WUHU216HW,2013-06-03 00:20:00,
2013-06-02 19:25:00,66.8,47.6,29.67,North,0,0.0,0.0,50,0.00,,,0.00,WUHU216HW,2013-06-03 00:25:00,
2013-06-02 19:30:00,67.3,49.2,29.67,North,0,0.0,0.0,52,0.00,,,0.00,WUHU216HW,2013-06-03 00:30:00,
2013-06-02 19:35:00,68.4,52.0,29.67,North,0,0.0,0.0,56,0.00,,,0.00,WUHU216HW,2013-06-03 00:35:00,
2013-06-02 19:40:00,68.8,51.4,29.67,North,0,0.0,0.0,54,0.00,,,0.00,WUHU216HW,2013-06-03 00:40:00,
2013-06-02 19:45:00,68.8,50.4,29.67,North,0,0.0,0.0,52,0.00,,,0.00,WUHU216HW,2013-06-03 00:45:00,
2013-06-02 19:50:00,68.8,50.0,29.67,North,0,0.0,0.0,51,0.00,,,0.00,WUHU216HW,2013-06-03 00:50:00,
2013-06-02 19:55:00,68.4,48.5,29.67,North,0,0.0,0.0,49,0.00,,,0.00,WUHU216HW,2013-06-03 00:55:00,
2013-06-02 20:00:00,67.5,48.3,29.67,North,0,0.0,0.0,50,0.00,,,0.00,WUHU216HW,2013-06-03 01:00:00,
2013-06-02 20:05:00,67.3,48.2,29.67,North,0,0.0,0.0,50,0.00,,,0.00,WUHU216HW,2013-06-03 01:05:00,
2013-06-02 20:10:00,66.8,47.6,29.67,North,0,0.0,0.0,50,0.00,,,0.00,WUHU216HW,2013-06-03 01:10:00,
2013-06-02 20:15:00,66.2,47.2,29.67,North,0,0.0,0.0,50,0.00,,,0.00,WUHU216HW,2013-06-03 01:15:00,
2013-06-02 20:20:00,65.9,47.3,29.67,North,0,0.0,0.0,51,0.00,,,0.00,WUHU216HW,2013-06-03 01:20:00,
2013-06-02 20:25:00,65.5,46.9,29.67,North,0,0.0,0.0,51,0.00,,,0.00,WUHU216HW,2013-06-03 01:25:00,
2013-06-02 20:30:00,65.3,46.7,29.67,North,0,0.0,0.0,51,0.00,,,0.00,WUHU216HW,2013-06-03 01:30:00,
2013-06-02 20:35:00,65.2,47.1,29.67,North,0,0.0,0.0,52,0.00,,,0.00,WUHU216HW,2013-06-03 01:35:00,
2013-06-02 20:40:00,65.2,47.5,29.67,North,0,0.0,0.0,53,0.00,,,0.00,WUHU216HW,2013-06-03 01:40:00,
2013-06-02 20:45:00,65.0,47.3,29.67,North,0,0.0,0.0,53,0.00,,,0.00,WUHU216HW,2013-06-03 01:45:00,
2013-06-02 20:50:00,64.6,47.0,29.67,North,0,0.0,0.0,53,0.00,,,0.00,WUHU216HW,2013-06-03 01:50:00,
2013-06-02 20:55:00,64.4,46.8,29.67,North,0,0.0,0.0,53,0.00,,,0.00,WUHU216HW,2013-06-03 01:55:00,
2013-06-02 21:00:00,63.9,46.8,29.68,North,0,0.0,0.0,54,0.00,,,0.00,WUHU216HW,2013-06-03 02:00:00,
2013-06-02 21:05:00,63.7,46.6,29.68,North,0,0.0,0.0,54,0.00,,,0.00,WUHU216HW,2013-06-03 02:05:00,
2013-06-02 21:10:00,63.4,46.8,29.68,North,0,0.0,0.0,55,0.00,,,0.00,WUHU216HW,2013-06-03 02:10:00,
2013-06-02 21:15:00,63.0,47.0,29.68,North,0,0.0,0.0,56,0.00,,,0.00,WUHU216HW,2013-06-03 02:15:00,
2013-06-02 21:20:00,62.6,46.6,29.68,North,0,0.0,0.0,56,0.00,,,0.00,WUHU216HW,2013-06-03 02:20:00,
2013-06-02 21:25:00,62.5,47.0,29.68,North,0,0.0,0.0,57,0.00,,,0.00,WUHU216HW,2013-06-03 02:25:00,
2013-06-02 21:30:00,62.3,46.8,29.68,North,0,0.0,0.0,57,0.00,,,0.00,WUHU216HW,2013-06-03 02:30:00,
2013-06-02 21:35:00,61.9,47.0,29.68,North,0,0.0,0.0,58,0.00,,,0.00,WUHU216HW,2013-06-03 02:35:00,
2013-06-02 21:40:00,61.9,48.8,29.68,North,0,0.0,0.0,62,0.00,,,0.00,WUHU216HW,2013-06-03 02:40:00,
2013-06-02 21:45:00,62.8,50.9,29.68,North,0,0.0,0.0,65,0.00,,,0.00,WUHU216HW,2013-06-03 02:45:00,
2013-06-02 21:50:00,63.4,51.4,29.68,North,0,0.0,0.0,65,0.00,,,0.00,WUHU216HW,2013-06-03 02:50:00,
2013-06-02 21:55:00,64.4,52.4,29.68,North,0,0.0,0.0,65,0.00,,,0.00,WUHU216HW,2013-06-03 02:55:00,
2013-06-02 22:00:00,64.8,51.5,29.69,North,0,0.0,0.0,62,0.00,,,0.00,WUHU216HW,2013-06-03 03:00:00,
2013-06-02 22:05:00,64.4,50.2,29.69,North,0,0.0,0.0,60,0.00,,,0.00,WUHU216HW,2013-06-03 03:05:00,
2013-06-02 22:10:00,63.9,49.2,29.69,North,0,0.0,0.0,59,0.00,,,0.00,WUHU216HW,2013-06-03 03:10:00,
2013-06-02 22:15:00,63.7,49.1,29.69,North,0,0.0,0.0,59,0.00,,,0.00,WUHU216HW,2013-06-03 03:15:00,
2013-06-02 22:20:00,63.9,48.8,29.68,North,0,0.0,0.0,58,0.00,,,0.00,WUHU216HW,2013-06-03 03:20:00,
2013-06-02 22:25:00,63.9,48.8,29.69,North,0,0.0,0.0,58,0.00,,,0.00,WUHU216HW,2013-06-03 03:25:00,
2013-06-02 22:30:00,63.9,48.8,29.69,North,0,0.0,0.0,58,0.00,,,0.00,WUHU216HW,2013-06-03 03:30:00,
2013-06-02 22:35:00,63.7,48.6,29.69,North,0,0.0,0.0,58,0.00,,,0.00,WUHU216HW,2013-06-03 03:35:00,
2013-06-02 22:40:00,63.0,48.4,29.69,North,0,0.0,0.0,59,0.00,,,0.00,WUHU216HW,2013-06-03 03:40:00,
2013-06-02 22:45:00,62.1,48.2,29.69,North,0,0.0,0.0,60,0.00,,,0.00,WUHU216HW,2013-06-03 03:45:00,
2013-06-02 22:50:00,61.6,47.6,29.69,North,0,0.0,0.0,60,0.00,,,0.00,WUHU216HW,2013-06-03 03:50:00,
2013-06-02 22:55:00,60.8,47.8,29.69,North,0,0.0,0.0,62,0.00,,,0.00,WUHU216HW,2013-06-03 03:55:00,
2013-06-02 23:00:00,61.2,50.2,29.69,North,0,0.0,0.0,67,0.00,,,0.00,WUHU216HW,2013-06-03 04:00:00,
2013-06-02 23:05:00,61.7,51.5,29.69,North,0,0.0,0.0,69,0.00,,,0.00,WUHU216HW,2013-06-03 04:05:00,
2013-06-02 23:10:00,62.1,51.8,29.69,North,0,0.0,0.0,69,0.00,,,0.00,WUHU216HW,2013-06-03 04:10:00,
2013-06-02 23:15:00,62.5,51.0,29.69,North,0,0.0,0.0,66,0.00,,,0.00,WUHU216HW,2013-06-03 04:15:00,
2013-06-02 23:21:00,62.6,50.7,29.69,North,0,0.0,0.0,65,0.00,,,0.00,WUHU216HW,2013-06-03 04:21:00,
2013-06-02 23:26:00,62.8,50.1,29.69,North,0,0.0,0.0,63,0.00,,,0.00,WUHU216HW,2013-06-03 04:26:00,
2013-06-02 23:31:00,62.8,50.1,29.68,North,0,0.0,0.0,63,0.00,,,0.00,WUHU216HW,2013-06-03 04:31:00,
2013-06-02 23:36:00,62.6,49.4,29.68,North,0,0.0,0.0,62,0.00,,,0.00,WUHU216HW,2013-06-03 04:36:00,
2013-06-02 23:41:00,62.5,49.2,29.69,North,0,0.0,0.0,62,0.00,,,0.00,WUHU216HW,2013-06-03 04:41:00,
2013-06-02 23:46:00,62.3,49.2,29.69,North,0,0.0,0.0,62,0.00,,,0.00,WUHU216HW,2013-06-03 04:46:00,
2013-06-02 23:51:00,61.6,48.9,29.69,North,0,0.0,0.0,63,0.00,,,0.00,WUHU216HW,2013-06-03 04:51:00,
2013-06-02 23:56:00,61.6,51.4,29.69,North,0,0.0,0.0,69,0.00,,,0.00,WUHU216HW,2013-06-03 04:56:00,